Snowfall_Accumulation
0.9 0.8 1.0 1.0 1.0 1.2 1.6 2.7 4.5 3.8 1.0 0.3 0.3 0.3 0.4 0.3 0.3 0.4 0.3 0.2 0.3 0.4 0.5 0.4 0.3 0.1 0.1 0.1 0.0 0.0 0.0 0.0 0.1 0.1 0.0 0.1 0.1 0.0
1.1 1.2 1.1 1.1 1.2 1.2 1.4 1.7 2.9 4.7 3.5 0.6 0.4 0.3 0.4 0.4 0.3 0.6 0.5 0.2 0.3 0.3 0.3 0.4 0.3 0.2 0.2 0.1 0.1 0.1 0.0 0.0 0.1 0.1 0.1 0.0 0.1 0.1
1.2 1.4 1.6 1.5 1.5 1.4 1.5 1.8 2.2 3.6 4.6 1.2 0.3 0.3 0.4 0.5 0.4 0.4 0.4 0.3 0.4 0.2 0.2 0.3 0.3 0.3 0.3 0.2 0.1 0.1 0.1 0.1 0.1 0.1 0.1 0.0 0.0 0.0
1.5 1.7 1.8 1.8 2.0 1.8 2.0 2.1 2.2 2.8 4.2 3.1 0.8 0.6 0.6 0.5 0.4 0.4 0.3 0.3 0.4 0.2 0.1 0.3 0.4 0.4 0.4 0.5 0.2 0.2 0.2 0.1 0.1 0.1 0.1 0.0 0.0 0.1
1.8 2.2 2.3 2.6 2.8 2.4 2.5 2.5 2.3 2.1 2.7 3.5 2.0 0.9 0.8 0.6 0.5 0.6 0.5 0.5 0.2 0.2 0.2 0.2 0.3 0.4 0.4 0.5 0.5 0.3 0.3 0.2 0.1 0.2 0.2 0.2 0.1 0.1
2.2 2.6 3.0 3.6 4.1 4.3 4.0 3.6 2.8 3.1 3.2 4.0 3.3 2.0 1.5 1.1 1.3 1.5 1.4 0.7 0.5 0.4 0.3 0.2 0.3 0.3 0.4 0.5 0.4 0.5 0.5 0.4 0.4 0.4 0.4 0.3 0.3 0.2
3.2 3.0 2.8 3.2 4.0 5.0 5.9 6.1 5.6 6.6 5.8 6.0 5.2 3.8 3.0 2.9 2.9 2.2 2.5 1.5 0.9 0.5 0.5 0.3 0.3 0.3 0.3 0.2 0.2 0.3 0.7 0.6 0.5 0.6 0.5 0.4 0.3 0.3
4.6 3.7 3.0 2.7 2.9 2.8 3.6 4.4 5.1 7.9 8.9 8.9 8.3 7.2 4.8 3.2 3.2 3.3 4.1 4.6 3.6 1.0 0.9 0.8 0.4 0.5 0.4 0.3 0.2 0.3 0.6 0.7 0.8 0.8 0.6 0.6 0.6 0.6
3.8 3.4 3.2 2.7 2.6 2.7 3.1 2.4 2.9 3.8 5.9 8.3 10.5 8.2 5.7 4.9 5.0 5.7 5.3 5.9 4.3 2.3 2.3 2.9 1.0 1.1 0.8 0.3 0.3 0.4 0.5 0.9 1.0 0.9 0.9 0.9 1.0 0.8
3.0 3.3 3.5 3.4 3.0 3.5 4.3 4.6 4.1 3.8 4.5 6.4 8.7 7.4 5.9 5.6 6.1 8.0 7.6 7.9 4.8 2.6 2.5 5.1 1.8 1.3 0.8 0.6 0.2 0.3 0.5 0.8 1.2 1.2 1.1 1.1 1.2 1.1
2.8 3.9 4.2 3.9 3.7 4.2 6.2 6.8 5.1 3.8 3.1 4.4 5.4 6.2 5.3 5.7 7.7 10.4 13.9 14.7 11.6 4.3 3.0 5.0 2.7 1.8 1.0 1.0 0.5 0.4 0.5 0.6 0.8 1.1 1.2 1.4 1.5 1.5
2.9 3.8 5.6 5.5 5.2 4.8 6.7 7.8 7.4 4.5 3.8 3.9 4.2 4.2 4.5 5.1 6.0 9.2 11.8 15.6 14.2 10.1 4.8 4.4 4.2 5.1 5.1 1.7 1.0 0.7 0.6 0.7 0.8 0.9 1.2 1.4 1.8 1.7
4.9 5.2 5.7 5.3 5.0 5.0 5.8 7.1 7.7 6.7 6.1 5.9 5.1 4.5 4.7 5.3 6.2 7.7 9.2 12.5 15.2 12.8 7.9 7.9 8.3 7.4 9.1 5.4 2.0 1.5 1.1 0.9 0.7 0.7 0.7 1.0 1.5 2.1
5.7 4.7 5.3 5.4 5.5 5.0 4.8 4.4 4.9 5.8 6.6 6.2 5.5 4.5 4.4 4.8 5.8 7.0 9.2 10.5 11.0 11.0 8.5 9.4 13.0 11.0 12.2 10.1 5.6 2.9 2.0 1.2 1.3 1.3 1.1 1.1 1.3 1.8
5.4 6.2 5.6 5.0 4.6 3.6 2.9 3.8 3.9 4.7 5.6 6.1 5.3 4.2 4.0 3.7 4.5 5.8 7.4 8.8 9.3 9.3 8.0 7.4 9.8 9.8 12.3 12.7 7.9 4.9 3.6 2.4 1.9 2.1 1.8 1.8 1.9 2.2
4.4 4.7 4.7 3.8 3.1 2.5 2.4 2.7 3.2 4.1 5.7 6.4 5.2 4.0 3.6 4.1 5.0 5.9 7.6 8.9 11.1 10.3 8.9 7.3 7.2 9.6 11.7 9.8 9.1 7.4 5.3 4.8 3.5 2.9 2.4 2.3 2.1 1.9
7.4 7.3 5.9 4.7 4.1 3.6 3.1 2.8 3.1 4.0 4.8 4.9 5.2 5.3 5.1 4.9 5.5 6.1 7.7 9.6 11.5 11.2 10.7 9.6 9.4 9.9 11.0 11.5 11.3 8.4 6.0 5.1 4.4 4.2 3.8 3.5 2.6 2.3
7.6 8.2 6.2 5.1 4.8 4.5 4.0 3.7 3.4 3.9 4.3 4.6 5.2 5.5 6.0 5.9 5.9 5.8 7.7 9.8 11.0 10.8 10.9 10.8 12.3 14.2 14.7 14.5 12.3 9.7 7.3 5.6 4.8 4.5 4.3 5.0 4.0 2.7
6.1 6.0 5.1 5.0 5.0 4.9 4.9 4.7 4.1 3.9 4.5 5.3 5.5 5.8 6.3 6.8 7.1 6.8 7.3 8.7 9.8 10.1 10.6 11.3 13.6 17.9 20.9 18.0 12.9 10.2 8.9 6.9 6.0 5.3 4.4 4.7 5.1 3.7
4.2 5.0 5.1 4.8 5.3 5.4 5.3 5.0 4.6 4.5 4.9 5.4 5.7 5.6 6.3 7.3 7.6 7.5 7.9 9.1 10.1 10.8 11.1 11.6 13.7 16.6 20.1 17.6 15.0 12.8 8.5 8.7 8.1 7.4 5.5 4.6 3.9 3.3
4.5 4.6 4.7 5.0 5.4 5.2 5.3 5.2 5.4 5.3 5.0 5.3 5.5 5.4 5.9 7.5 7.8 7.1 7.6 8.5 10.6 12.0 12.2 12.2 11.2 12.6 15.2 16.9 18.7 16.7 13.4 8.9 7.0 8.5 8.4 8.5 7.9 6.8
4.9 5.1 4.8 4.8 4.8 5.3 5.4 5.3 5.3 4.8 4.7 5.0 5.2 5.3 5.8 7.0 7.5 7.4 8.1 9.2 10.1 10.8 11.2 11.4 10.8 13.8 18.5 20.7 19.0 16.3 15.3 12.7 11.2 7.5 6.7 7.9 11.7 12.5
6.0 5.9 5.1 4.7 4.8 5.1 5.3 5.2 5.2 4.7 4.5 5.0 5.5 5.7 6.1 7.1 7.3 7.9 8.3 8.9 9.8 10.2 10.8 11.7 13.0 15.4 17.8 17.8 18.0 16.7 14.9 12.7 12.5 12.1 12.2 6.1 5.1 5.5